Find Starlink 32242

NORAD ID: 60429 Int'l Des: 2024-144 Owner: SPXS Country: US Constellation: starlink operational
LEOCIRCULAR

Current View

Loading 3D Globe...

About Starlink 32242

Starlink 32242 (NORAD 60429) is a starlink constellation satellite (v2 mini) launched Aug 12, 2024 by SPXS of US. It operates in LEO, CIRCULAR orbit with a mass of 730.00 kg.

About Starlink 32242

Description loading...

Upcoming Passes

Passes for default location (London). Set your location on the main map for personalized predictions.

Altitude History

Loading altitude history...

Two-Line Element Set

1 60429U 24144E 26168.14186520 .00001206 00000-0 52828-4 0 9994
2 60429 53.1599 115.3377 0001183 85.5666 274.5470 15.30197700104570
Epoch: Jun 17, 2026 • Age: 25 hours

Current Status

Altitude 477.0 km
Velocity 7.63 km/s
Sub-Earth Point -5.32°S, 133.23°E
Launch Date Aug 12, 2024
Age 1.8 years
Type internet

Technical Details

Classification Payload
Mass 730.00 kg
Dry Mass 700.00 kg
Total Mass 730.00 kg
Length 0.30 m
Diameter 4.10 m
Span 29.00 m
Shape Box + pan
Manufacturer SPXS
Bus Type Starlink V2M
Phase Status In Orbit
Owner/State SPXS/US

Most Searched